Regional Weather Roundup
Issued by NWS Newport/Morehead, NC

Current Version | Previous Version | Graphics & Text | Print | Product List | Glossary Off
Versions: 1 2 3 4 5 6 7 8 9 10 11 12 13 14 15 16 17 18 19 20 21 22 23 24 25 26 27 28 29 30 31 32 33 34 35 36 37 38 39 40 41 42 43 44 45 46 47 48 49 50

000
ASUS42 KMHX 250524
RWRMHX
WEATHER ROUNDUP FOR EASTERN NORTH CAROLINA
NATIONAL WEATHER SERVICE NEWPORT/MOREHEAD CITY NC
100 AM EDT SAT APR 25 2015

NOTE: "FAIR" INDICATES FEW OR NO CLOUDS BELOW 12,000 FEET
WITH NO SIGNIFICANT WEATHER AND/OR OBSTRUCTIONS TO VISIBILITY

NCZ015>017-031-032-045>047-102-103-250600-
NORTH COAST

CITY           SKY/WX    TMP DP  RH WIND       PRES   REMARKS
EDENTON        CLEAR     57  40  53 SW8       29.94F
ELIZABETH CITY PTCLDY    50  45  83 SE7       29.95F
KITTY HAWK     PTCLDY    49  42  75 SE5       29.96S
MANTEO         PTCLDY    50  43  78 SE6       29.96F

$$

NCZ045>047-081-094-103-104-250600-
CENTRAL COAST

CITY           SKY/WX    TMP DP  RH WIND       PRES   REMARKS
FRISCO         PTCLDY    46  39  76 W6        29.97F
SWANQUARTER      N/A     61 N/A N/A SW10G16   29.91F

$$

NCZ095-097-098-100-101-250600-
SOUTHERN COAST

CITY           SKY/WX    TMP DP  RH WIND       PRES   REMARKS
BEAUFORT       PTCLDY    60  51  72 W7        29.98F
CEDAR ISLAND     N/A     55 N/A N/A S3        30.00S
JACKSONVILLE   MOCLDY    53  44  71 CALM      29.97F
PINEY ISLAND   CLEAR    N/A N/A N/A SW5       29.97F
WILMINGTON     MOCLDY    58  47  66 SW6       29.98F


$$

NCZ011>013-027>030-043-044-078>080-089-090>093-098-250600-
COASTAL PLAIN

CITY           SKY/WX    TMP DP  RH WIND       PRES   REMARKS
AHOSKIE        CLEAR     42  38  87 CALM      29.95S
CLINTON        MOCLDY    51  43  73 CALM      29.97F
ELIZABETHTOWN  MOCLDY    55  44  66 CALM      29.97S
GOLDSBORO      MOCLDY    54  38  56 S2        29.94S
GREENVILLE     PTCLDY    48  43  81 CALM      29.98S
HAVELOCK       PTCLDY    50  44  80 CALM      29.99F
KENANSVILLE    MOCLDY    47  43  85 CALM      29.97F
KINSTON        MOCLDY    49  42  78 CALM      29.97F
NEW BERN       PTCLDY    50  43  77 SW5       29.99S
RICHLANDS      MOCLDY    48  41  76 CALM      29.98S
ROCKY MOUNT    PTCLDY    47  41  80 CALM      29.95F
WASHINGTON     PTCLDY    51  37  59 S6        29.97S
WHITEVILLE     PTCLDY    55  45  68 SW5       29.97F

$$

AMZ130-135-150-152-154-156-158-170-250-252-270-ANZ085-086-088-633-658-670-250600-
MARINE OBSERVATIONS

STATION/POSITION TIME  TEMP    WIND        PRES    WAVE   SWELL
                       AIR SEA DIR/SP/G            HT/PER HT/PER
                 (UTC) (F)     (DEG/KT/KT) (MB)    (FT/S) (FT/S)
CHESAPEAKE LIGHT 0500   51     180/ 15/ 15 1015.0
64 E VA BEACH    0450   54 63  220/ 10/ 12 1014.5    3/ 6   3/ 6
DUCK             0500   52 55  130/ 13/ 14 1013.5
2 E DUCK         0411      54                N/A     3/13   2/13
10 NE DUCK       NOT AVBL
OREGON INLET     0500   51 60  100/  5/  7 1014.5
HATTERAS CG      0412   63 66  270/  6/  8 1014.6
DIAMOND BUOY     0450   65 73  260/ 12/ 16 1014.8    5/10   3/10
CAPE LOOKOUT     0500   61     240/  5/  6 1014.8
BEAUFORT LAB     0412   61 65  250/  4/  7 1014.5
27 SE WRIGHTSVLE 0500   63 71  260/ 14/ 16   N/A
5 SE WRIGHTSVLE  0408   63 65  240/ 14/ 19 1015.2
225 S CAPE HAT   0450   63 70   20/  8/ 10 1017.1    6/ 8   5/ 8
41 SE CHARLESTON 0450   68 72  180/  6/  8 1016.0    3/10   3/10

$$


USA.gov is the U.S. government's official web portal to all federal, state and local government web resources and services.